Location: Bruderhein
(53.8035°N, 112.9265°W)
Time: 08:56:36
(UTC+00:00)

Envisat - Pass Details

Date: 31 May 2024
Orbit: 762 x 764 km, 98.3° (Epoch: 13 June)

Event Time Altitude Azimuth Distance (km) Brightness Sun altitude
Rises 09:49:01 0° 23° (NNE) 3,241 8.4 -8.4°
Reaches altitude 10° 09:51:48 10° 38° (NE) 2,309 7.2 -8.2°
Maximum altitude 09:55:48 23° 90° (E) 1,587 5.1 -7.9°
Drops below altitude 10° 09:59:47 10° 142° (SE) 2,295 5.3 -7.6°
Sets 10:02:32 0° 157° (SSE) 3,216 5.9 -7.3°
